QPF
0.07 0.04 0.03 0.02 0.03 0.04 0.06 0.06 0.04 0.04 0.05 0.05 0.05 0.03 0.03 0.04 0.05 0.05 0.04 0.03 0.02 0.02 0.02 0.02 0.02 0.02 0.02 0.02 0.02 0.02 0.02 0.03 0.02 0.01 0.02 0.02 0.03 0.03 0.04 0.04 0.04 0.03 0.02
0.07 0.04 0.04 0.04 0.03 0.04 0.05 0.05 0.04 0.04 0.05 0.03 0.03 0.01 0.02 0.03 0.03 0.03 0.04 0.04 0.01 0.01 0.01 0.02 0.03 0.03 0.03 0.03 0.03 0.03 0.03 0.03 0.02 0.02 0.03 0.04 0.03 0.04 0.05 0.04 0.05 0.04 0.03
0.04 0.03 0.03 0.04 0.05 0.04 0.05 0.06 0.06 0.06 0.08 0.04 0.02 0.01 0.02 0.02 0.02 0.02 0.03 0.03 0.04 0.03 0.02 0.02 0.02 0.03 0.03 0.04 0.04 0.03 0.03 0.03 0.02 0.02 0.02 0.02 0.02 0.03 0.04 0.04 0.03 0.03 0.03
0.03 0.02 0.02 0.03 0.05 0.05 0.06 0.08 0.09 0.08 0.08 0.05 0.03 0.01 0.02 0.02 0.02 0.02 0.02 0.03 0.05 0.04 0.03 0.03 0.02 0.01 0.02 0.04 0.04 0.04 0.04 0.03 0.02 0.02 0.02 0.02 0.03 0.03 0.04 0.04 0.04 0.03 0.03
0.02 0.02 0.02 0.03 0.04 0.07 0.09 0.09 0.08 0.08 0.07 0.06 0.04 0.02 0.02 0.03 0.02 0.02 0.04 0.05 0.04 0.03 0.04 0.03 0.02 0.02 0.03 0.04 0.04 0.04 0.05 0.04 0.03 0.03 0.03 0.03 0.03 0.02 0.02 0.03 0.03 0.04 0.04
0.03 0.03 0.03 0.03 0.04 0.07 0.11 0.11 0.10 0.10 0.10 0.08 0.06 0.04 0.03 0.05 0.04 0.04 0.06 0.09 0.05 0.03 0.03 0.04 0.02 0.02 0.02 0.03 0.03 0.03 0.05 0.05 0.05 0.05 0.05 0.05 0.04 0.03 0.02 0.02 0.02 0.03 0.03
0.03 0.04 0.04 0.04 0.04 0.05 0.07 0.09 0.11 0.11 0.11 0.11 0.10 0.08 0.07 0.07 0.06 0.06 0.06 0.07 0.05 0.04 0.04 0.04 0.04 0.04 0.03 0.03 0.03 0.03 0.05 0.05 0.05 0.05 0.04 0.04 0.04 0.04 0.03 0.02 0.02 0.02 0.03
0.04 0.04 0.04 0.02 0.03 0.04 0.05 0.08 0.09 0.09 0.09 0.09 0.10 0.12 0.11 0.09 0.06 0.05 0.07 0.08 0.05 0.05 0.04 0.04 0.05 0.05 0.05 0.04 0.04 0.03 0.04 0.04 0.05 0.04 0.04 0.04 0.04 0.04 0.03 0.03 0.03 0.03 0.03
0.06 0.05 0.03 0.01 0.02 0.02 0.02 0.04 0.06 0.08 0.09 0.10 0.10 0.12 0.10 0.10 0.08 0.06 0.07 0.08 0.07 0.05 0.04 0.06 0.06 0.06 0.06 0.05 0.06 0.05 0.04 0.04 0.04 0.06 0.06 0.06 0.05 0.04 0.03 0.03 0.04 0.03 0.03
0.06 0.06 0.03 0.02 0.02 0.02 0.01 0.01 0.02 0.03 0.05 0.07 0.08 0.08 0.07 0.07 0.07 0.05 0.07 0.07 0.05 0.05 0.04 0.05 0.06 0.06 0.06 0.06 0.06 0.07 0.05 0.03 0.03 0.04 0.06 0.05 0.05 0.04 0.03 0.03 0.03 0.03 0.03
0.04 0.04 0.03 0.03 0.04 0.04 0.05 0.04 0.02 0.02 0.02 0.03 0.05 0.06 0.06 0.05 0.06 0.05 0.04 0.05 0.06 0.07 0.07 0.05 0.07 0.07 0.07 0.07 0.08 0.07 0.06 0.04 0.03 0.04 0.05 0.04 0.04 0.03 0.02 0.03 0.03 0.03 0.03
0.03 0.03 0.03 0.04 0.05 0.06 0.10 0.11 0.07 0.05 0.04 0.03 0.03 0.05 0.06 0.05 0.05 0.04 0.04 0.03 0.03 0.05 0.07 0.07 0.08 0.07 0.07 0.08 0.06 0.05 0.06 0.06 0.04 0.04 0.03 0.03 0.03 0.03 0.02 0.02 0.03 0.03 0.04
0.05 0.04 0.04 0.04 0.04 0.05 0.07 0.09 0.10 0.09 0.07 0.05 0.04 0.04 0.06 0.04 0.03 0.04 0.05 0.03 0.02 0.02 0.05 0.09 0.09 0.09 0.08 0.07 0.05 0.04 0.04 0.06 0.05 0.04 0.03 0.03 0.03 0.02 0.01 0.01 0.02 0.02 0.03
0.10 0.05 0.04 0.04 0.03 0.05 0.06 0.06 0.07 0.07 0.07 0.06 0.06 0.06 0.06 0.04 0.04 0.05 0.06 0.05 0.03 0.02 0.02 0.06 0.06 0.05 0.06 0.04 0.04 0.05 0.05 0.04 0.03 0.02 0.02 0.02 0.01 0.01 0.01 0.01 0.00 0.01 0.01
0.11 0.12 0.07 0.05 0.04 0.04 0.05 0.07 0.08 0.08 0.08 0.07 0.08 0.07 0.06 0.05 0.05 0.05 0.06 0.06 0.06 0.04 0.03 0.02 0.03 0.03 0.03 0.02 0.02 0.03 0.03 0.03 0.03 0.03 0.02 0.02 0.02 0.02 0.01 0.01 0.01 0.00 0.00
0.03 0.07 0.11 0.09 0.06 0.05 0.06 0.07 0.07 0.07 0.08 0.09 0.10 0.08 0.05 0.04 0.05 0.05 0.06 0.08 0.10 0.08 0.04 0.03 0.04 0.05 0.04 0.03 0.03 0.02 0.02 0.02 0.03 0.03 0.02 0.02 0.03 0.03 0.02 0.02 0.01 0.01 0.01
0.03 0.03 0.04 0.05 0.07 0.07 0.08 0.08 0.08 0.08 0.10 0.09 0.07 0.07 0.05 0.06 0.06 0.06 0.08 0.08 0.08 0.09 0.06 0.03 0.02 0.03 0.03 0.04 0.05 0.03 0.02 0.02 0.02 0.03 0.03 0.03 0.03 0.03 0.02 0.02 0.02 0.02 0.02
0.03 0.03 0.04 0.04 0.05 0.06 0.08 0.09 0.10 0.10 0.10 0.08 0.07 0.06 0.05 0.05 0.05 0.06 0.07 0.07 0.08 0.09 0.07 0.05 0.05 0.05 0.04 0.04 0.04 0.03 0.02 0.02 0.03 0.03 0.03 0.03 0.02 0.03 0.03 0.02 0.01 0.01 0.01
0.05 0.04 0.04 0.03 0.04 0.06 0.08 0.10 0.11 0.11 0.12 0.10 0.08 0.08 0.08 0.10 0.09 0.07 0.06 0.05 0.05 0.05 0.06 0.06 0.06 0.05 0.04 0.04 0.04 0.04 0.04 0.04 0.03 0.03 0.03 0.02 0.02 0.02 0.02 0.01 0.01 0.01 0.02
0.11 0.11 0.09 0.06 0.04 0.04 0.06 0.08 0.11 0.14 0.17 0.15 0.12 0.13 0.14 0.12 0.09 0.07 0.06 0.04 0.05 0.04 0.05 0.05 0.05 0.05 0.06 0.06 0.06 0.05 0.06 0.07 0.09 0.07 0.06 0.05 0.04 0.03 0.02 0.02 0.02 0.02 0.02
0.11 0.11 0.10 0.07 0.05 0.04 0.05 0.07 0.09 0.10 0.13 0.15 0.14 0.13 0.10 0.09 0.07 0.06 0.04 0.05 0.06 0.05 0.05 0.05 0.04 0.04 0.06 0.07 0.06 0.05 0.05 0.05 0.07 0.08 0.07 0.06 0.05 0.04 0.03 0.02 0.02 0.02 0.02
0.12 0.11 0.08 0.05 0.05 0.06 0.07 0.07 0.07 0.07 0.08 0.09 0.07 0.07 0.06 0.05 0.04 0.05 0.05 0.07 0.07 0.05 0.05 0.05 0.04 0.04 0.03 0.04 0.06 0.07 0.06 0.06 0.05 0.04 0.07 0.06 0.05 0.04 0.03 0.03 0.03 0.03 0.02
0.09 0.09 0.08 0.07 0.07 0.06 0.06 0.04 0.04 0.03 0.03 0.04 0.04 0.04 0.03 0.03 0.04 0.04 0.05 0.05 0.05 0.05 0.05 0.05 0.04 0.03 0.04 0.04 0.05 0.05 0.04 0.05 0.05 0.04 0.05 0.05 0.06 0.04 0.03 0.03 0.04 0.04 0.04
0.07 0.09 0.09 0.09 0.08 0.06 0.05 0.04 0.04 0.03 0.03 0.03 0.04 0.04 0.04 0.04 0.03 0.03 0.04 0.04 0.05 0.06 0.06 0.06 0.06 0.05 0.05 0.05 0.06 0.05 0.04 0.04 0.03 0.04 0.06 0.06 0.04 0.04 0.04 0.04 0.04 0.04 0.05
0.09 0.08 0.08 0.09 0.09 0.08 0.07 0.05 0.04 0.04 0.04 0.04 0.04 0.04 0.04 0.03 0.03 0.04 0.05 0.04 0.05 0.05 0.06 0.06 0.05 0.05 0.05 0.06 0.07 0.07 0.06 0.05 0.04 0.03 0.04 0.06 0.06 0.06 0.05 0.05 0.06 0.06 0.06
0.09 0.11 0.10 0.11 0.09 0.08 0.08 0.07 0.06 0.05 0.04 0.03 0.04 0.04 0.04 0.04 0.05 0.06 0.06 0.05 0.04 0.04 0.05 0.05 0.04 0.04 0.04 0.04 0.05 0.05 0.05 0.05 0.04 0.03 0.03 0.05 0.05 0.06 0.07 0.05 0.06 0.06 0.06
MSLP
1017.14 1017.40 1017.60 1017.74 1017.84 1017.90 1017.95 1017.99 1018.03 1018.07 1018.10 1018.12 1018.12 1018.11 1018.08 1018.07 1018.07 1018.11 1018.21 1018.34 1018.52 1018.73 1018.95 1019.15 1019.33 1019.47 1019.57 1019.64 1019.69 1019.73 1019.78 1019.83 1019.91 1020.00 1020.11 1020.23 1020.36 1020.48 1020.58 1020.66 1020.72 1020.74 1020.74
1017.31 1017.56 1017.75 1017.87 1017.94 1017.99 1018.02 1018.05 1018.10 1018.15 1018.19 1018.22 1018.23 1018.21 1018.16 1018.11 1018.06 1018.05 1018.08 1018.16 1018.30 1018.48 1018.68 1018.89 1019.08 1019.24 1019.36 1019.44 1019.48 1019.51 1019.54 1019.57 1019.63 1019.72 1019.83 1019.96 1020.10 1020.24 1020.36 1020.46 1020.52 1020.55 1020.54
1017.37 1017.61 1017.79 1017.91 1017.99 1018.04 1018.08 1018.13 1018.19 1018.26 1018.32 1018.36 1018.37 1018.34 1018.27 1018.17 1018.07 1017.98 1017.93 1017.94 1018.00 1018.13 1018.29 1018.48 1018.67 1018.84 1018.98 1019.07 1019.13 1019.17 1019.20 1019.23 1019.29 1019.37 1019.48 1019.62 1019.77 1019.93 1020.07 1020.18 1020.26 1020.30 1020.31
1017.29 1017.52 1017.70 1017.84 1017.95 1018.03 1018.11 1018.20 1018.28 1018.37 1018.46 1018.51 1018.52 1018.48 1018.38 1018.24 1018.07 1017.90 1017.76 1017.67 1017.64 1017.68 1017.78 1017.93 1018.10 1018.26 1018.41 1018.53 1018.62 1018.69 1018.74 1018.79 1018.85 1018.94 1019.06 1019.20 1019.36 1019.52 1019.68 1019.82 1019.93 1019.99 1020.02
1017.07 1017.28 1017.47 1017.65 1017.80 1017.94 1018.07 1018.20 1018.33 1018.45 1018.55 1018.61 1018.63 1018.58 1018.46 1018.28 1018.05 1017.81 1017.58 1017.38 1017.24 1017.18 1017.19 1017.27 1017.39 1017.54 1017.69 1017.84 1017.96 1018.07 1018.15 1018.23 1018.32 1018.42 1018.55 1018.69 1018.85 1019.02 1019.20 1019.36 1019.50 1019.60 1019.68
1016.69 1016.88 1017.09 1017.31 1017.52 1017.72 1017.92 1018.10 1018.28 1018.43 1018.55 1018.63 1018.65 1018.60 1018.48 1018.28 1018.02 1017.72 1017.40 1017.11 1016.86 1016.68 1016.58 1016.56 1016.62 1016.73 1016.87 1017.03 1017.18 1017.33 1017.46 1017.58 1017.69 1017.81 1017.94 1018.09 1018.25 1018.43 1018.62 1018.80 1018.97 1019.13 1019.25
1016.18 1016.35 1016.57 1016.83 1017.10 1017.37 1017.62 1017.86 1018.07 1018.25 1018.40 1018.50 1018.54 1018.52 1018.41 1018.22 1017.95 1017.62 1017.25 1016.87 1016.52 1016.23 1016.01 1015.89 1015.85 1015.90 1016.01 1016.17 1016.34 1016.52 1016.69 1016.84 1016.98 1017.12 1017.26 1017.41 1017.58 1017.76 1017.95 1018.16 1018.36 1018.56 1018.73
1015.58 1015.72 1015.95 1016.23 1016.55 1016.86 1017.17 1017.44 1017.69 1017.90 1018.07 1018.20 1018.27 1018.29 1018.23 1018.08 1017.84 1017.51 1017.11 1016.69 1016.26 1015.86 1015.53 1015.29 1015.16 1015.13 1015.18 1015.31 1015.48 1015.67 1015.86 1016.04 1016.20 1016.36 1016.51 1016.66 1016.82 1017.01 1017.22 1017.44 1017.67 1017.91 1018.13
1014.94 1015.06 1015.28 1015.57 1015.90 1016.25 1016.57 1016.86 1017.12 1017.34 1017.53 1017.69 1017.82 1017.89 1017.89 1017.81 1017.63 1017.35 1016.97 1016.52 1016.04 1015.57 1015.14 1014.80 1014.56 1014.44 1014.42 1014.49 1014.63 1014.80 1014.99 1015.18 1015.36 1015.52 1015.68 1015.84 1016.01 1016.20 1016.42 1016.66 1016.92 1017.18 1017.43
1014.34 1014.43 1014.62 1014.90 1015.22 1015.56 1015.87 1016.16 1016.40 1016.62 1016.83 1017.01 1017.18 1017.32 1017.40 1017.41 1017.31 1017.10 1016.76 1016.33 1015.83 1015.31 1014.82 1014.38 1014.04 1013.82 1013.72 1013.72 1013.80 1013.93 1014.10 1014.27 1014.44 1014.61 1014.77 1014.94 1015.13 1015.34 1015.58 1015.83 1016.11 1016.39 1016.66
1013.85 1013.90 1014.05 1014.29 1014.57 1014.86 1015.14 1015.38 1015.60 1015.80 1015.99 1016.20 1016.40 1016.60 1016.76 1016.86 1016.85 1016.72 1016.45 1016.06 1015.58 1015.04 1014.50 1013.99 1013.57 1013.26 1013.06 1012.98 1012.98 1013.05 1013.16 1013.30 1013.45 1013.61 1013.78 1013.97 1014.18 1014.42 1014.68 1014.97 1015.26 1015.56 1015.84
1013.51 1013.51 1013.62 1013.80 1014.01 1014.24 1014.44 1014.62 1014.79 1014.95 1015.12 1015.32 1015.55 1015.79 1016.01 1016.18 1016.26 1016.21 1016.01 1015.68 1015.23 1014.70 1014.14 1013.60 1013.11 1012.72 1012.43 1012.25 1012.16 1012.15 1012.20 1012.28 1012.40 1012.55 1012.72 1012.93 1013.17 1013.44 1013.74 1014.06 1014.38 1014.69 1014.98
1013.33 1013.30 1013.35 1013.45 1013.59 1013.73 1013.85 1013.96 1014.05 1014.15 1014.29 1014.47 1014.70 1014.96 1015.21 1015.43 1015.57 1015.58 1015.45 1015.18 1014.77 1014.27 1013.72 1013.16 1012.64 1012.19 1011.82 1011.55 1011.37 1011.27 1011.23 1011.24 1011.31 1011.43 1011.60 1011.82 1012.10 1012.41 1012.76 1013.12 1013.47 1013.80 1014.09
1013.32 1013.25 1013.24 1013.28 1013.33 1013.39 1013.43 1013.45 1013.47 1013.52 1013.60 1013.75 1013.95 1014.20 1014.46 1014.69 1014.86 1014.91 1014.83 1014.60 1014.25 1013.79 1013.26 1012.71 1012.17 1011.68 1011.26 1010.91 1010.63 1010.43 1010.30 1010.23 1010.23 1010.31 1010.46 1010.69 1010.99 1011.34 1011.73 1012.13 1012.52 1012.87 1013.18
1013.45 1013.34 1013.29 1013.26 1013.24 1013.22 1013.19 1013.14 1013.10 1013.09 1013.13 1013.23 1013.39 1013.60 1013.84 1014.05 1014.22 1014.28 1014.22 1014.03 1013.72 1013.30 1012.82 1012.29 1011.76 1011.26 1010.79 1010.37 1010.02 1009.72 1009.48 1009.32 1009.24 1009.26 1009.37 1009.58 1009.88 1010.25 1010.67 1011.10 1011.53 1011.91 1012.23
1013.65 1013.53 1013.44 1013.37 1013.30 1013.23 1013.14 1013.05 1012.96 1012.91 1012.90 1012.95 1013.07 1013.23 1013.42 1013.60 1013.73 1013.77 1013.72 1013.55 1013.27 1012.90 1012.45 1011.97 1011.47 1010.96 1010.47 1010.01 1009.58 1009.19 1008.86 1008.59 1008.42 1008.34 1008.39 1008.55 1008.82 1009.18 1009.60 1010.05 1010.49 1010.89 1011.24
1013.88 1013.76 1013.65 1013.56 1013.46 1013.37 1013.26 1013.14 1013.04 1012.96 1012.92 1012.94 1013.01 1013.12 1013.25 1013.37 1013.45 1013.46 1013.39 1013.23 1012.98 1012.64 1012.25 1011.81 1011.34 1010.86 1010.37 1009.88 1009.39 1008.93 1008.50 1008.12 1007.84 1007.66 1007.60 1007.67 1007.87 1008.17 1008.56 1008.98 1009.42 1009.83 1010.19
1014.10 1013.97 1013.87 1013.77 1013.68 1013.58 1013.47 1013.36 1013.25 1013.17 1013.12 1013.11 1013.14 1013.21 1013.28 1013.35 1013.38 1013.36 1013.27 1013.10 1012.87 1012.57 1012.22 1011.83 1011.41 1010.96 1010.48 1009.98 1009.46 1008.93 1008.41 1007.93 1007.53 1007.22 1007.04 1006.99 1007.07 1007.27 1007.57 1007.93 1008.33 1008.72 1009.09
1014.25 1014.14 1014.05 1013.97 1013.89 1013.81 1013.72 1013.62 1013.53 1013.46 1013.41 1013.39 1013.40 1013.43 1013.46 1013.48 1013.47 1013.41 1013.30 1013.13 1012.91 1012.65 1012.35 1012.01 1011.64 1011.22 1010.77 1010.27 1009.73 1009.16 1008.58 1008.01 1007.49 1007.05 1006.72 1006.51 1006.44 1006.50 1006.67 1006.93 1007.24 1007.59 1007.94
1014.34 1014.25 1014.17 1014.11 1014.06 1013.99 1013.93 1013.85 1013.78 1013.72 1013.68 1013.67 1013.66 1013.67 1013.68 1013.67 1013.63 1013.55 1013.43 1013.26 1013.06 1012.82 1012.56 1012.27 1011.94 1011.58 1011.16 1010.68 1010.14 1009.55 1008.92 1008.28 1007.66 1007.09 1006.61 1006.24 1006.00 1005.89 1005.90 1006.01 1006.21 1006.48 1006.78
1014.36 1014.28 1014.23 1014.18 1014.14 1014.10 1014.05 1013.99 1013.94 1013.89 1013.86 1013.85 1013.84 1013.85 1013.84 1013.82 1013.77 1013.67 1013.55 1013.39 1013.20 1012.99 1012.76 1012.51 1012.23 1011.91 1011.54 1011.10 1010.58 1009.99 1009.34 1008.65 1007.95 1007.28 1006.67 1006.14 1005.73 1005.43 1005.26 1005.21 1005.27 1005.43 1005.67
1014.32 1014.26 1014.21 1014.18 1014.14 1014.10 1014.05 1014.00 1013.95 1013.91 1013.89 1013.87 1013.88 1013.88 1013.88 1013.85 1013.80 1013.71 1013.59 1013.44 1013.27 1013.08 1012.88 1012.66 1012.42 1012.14 1011.81 1011.40 1010.92 1010.36 1009.71 1009.01 1008.27 1007.52 1006.80 1006.15 1005.58 1005.11 1004.76 1004.55 1004.45 1004.49 1004.64
1014.24 1014.18 1014.14 1014.10 1014.06 1014.01 1013.95 1013.89 1013.84 1013.79 1013.76 1013.75 1013.76 1013.77 1013.77 1013.75 1013.70 1013.62 1013.51 1013.37 1013.20 1013.03 1012.84 1012.64 1012.43 1012.19 1011.89 1011.53 1011.10 1010.57 1009.95 1009.26 1008.51 1007.73 1006.94 1006.19 1005.49 1004.88 1004.38 1004.00 1003.77 1003.67 1003.73
1014.13 1014.07 1014.02 1013.98 1013.92 1013.86 1013.78 1013.70 1013.63 1013.57 1013.53 1013.52 1013.52 1013.54 1013.54 1013.53 1013.49 1013.42 1013.31 1013.17 1013.01 1012.83 1012.65 1012.46 1012.25 1012.03 1011.76 1011.44 1011.05 1010.57 1010.00 1009.34 1008.61 1007.82 1007.01 1006.19 1005.41 1004.69 1004.06 1003.56 1003.19 1002.98 1002.94
1013.99 1013.93 1013.88 1013.82 1013.75 1013.66 1013.57 1013.47 1013.38 1013.32 1013.27 1013.25 1013.26 1013.27 1013.28 1013.27 1013.23 1013.15 1013.03 1012.88 1012.71 1012.52 1012.33 1012.13 1011.92 1011.70 1011.45 1011.16 1010.80 1010.36 1009.84 1009.22 1008.52 1007.75 1006.93 1006.09 1005.26 1004.47 1003.75 1003.15 1002.68 1002.37 1002.24
1013.81 1013.76 1013.70 1013.63 1013.55 1013.46 1013.36 1013.26 1013.17 1013.10 1013.05 1013.03 1013.03 1013.04 1013.04 1013.02 1012.97 1012.88 1012.75 1012.58 1012.38 1012.17 1011.95 1011.73 1011.51 1011.28 1011.03 1010.74 1010.40 1009.99 1009.51 1008.93 1008.26 1007.51 1006.70 1005.85 1004.99 1004.16 1003.38 1002.70 1002.16 1001.77 1001.57
Thickness
5777 5776 5775 5774 5773 5772 5770 5769 5768 5767 5767 5766 5766 5765 5765 5765 5765 5765 5764 5762 5761 5759 5758 5757 5755 5754 5752 5750 5749 5748 5746 5745 5743 5742 5740 5738 5737 5736 5734 5732 5731 5729 5728
5778 5776 5775 5774 5773 5772 5771 5769 5768 5767 5766 5766 5766 5766 5766 5766 5766 5765 5764 5763 5761 5760 5758 5757 5756 5755 5753 5752 5750 5749 5747 5746 5744 5742 5741 5739 5737 5736 5735 5733 5731 5729 5728
5779 5777 5775 5774 5773 5772 5771 5769 5768 5767 5766 5766 5766 5766 5766 5766 5766 5766 5765 5764 5762 5760 5759 5758 5757 5756 5754 5753 5751 5750 5748 5747 5745 5743 5742 5740 5738 5737 5735 5734 5732 5731 5729
5779 5778 5776 5775 5774 5772 5771 5769 5768 5766 5765 5764 5764 5765 5766 5766 5766 5766 5765 5764 5763 5761 5760 5759 5758 5757 5755 5754 5753 5751 5750 5748 5746 5745 5743 5741 5740 5738 5736 5735 5733 5732 5731
5780 5778 5777 5776 5774 5773 5771 5770 5767 5766 5763 5763 5763 5764 5765 5765 5766 5766 5765 5765 5763 5762 5761 5760 5759 5758 5757 5756 5754 5753 5751 5749 5748 5746 5744 5743 5741 5739 5738 5736 5735 5733 5732
5780 5779 5777 5776 5774 5772 5770 5769 5766 5765 5764 5763 5763 5762 5763 5764 5765 5765 5766 5765 5764 5763 5762 5761 5760 5759 5758 5757 5756 5754 5752 5751 5749 5748 5746 5744 5743 5741 5739 5737 5736 5735 5733
5781 5779 5778 5776 5774 5771 5770 5768 5766 5763 5762 5762 5758 5756 5759 5763 5763 5765 5765 5765 5764 5764 5763 5762 5761 5760 5759 5758 5756 5755 5753 5752 5751 5749 5747 5746 5744 5742 5741 5739 5737 5735 5734
5781 5780 5777 5775 5774 5771 5769 5767 5765 5761 5760 5761 5756 5749 5747 5751 5758 5764 5764 5764 5764 5764 5763 5763 5761 5761 5759 5758 5757 5755 5754 5753 5752 5750 5749 5747 5746 5744 5742 5740 5738 5736 5735
5781 5779 5777 5775 5773 5772 5769 5767 5766 5762 5758 5759 5759 5752 5744 5741 5748 5757 5761 5763 5763 5763 5763 5763 5761 5760 5759 5758 5757 5756 5755 5754 5752 5751 5749 5748 5747 5745 5743 5741 5739 5737 5736
5781 5778 5776 5775 5773 5772 5770 5768 5767 5764 5760 5756 5757 5757 5755 5752 5745 5745 5754 5759 5761 5761 5762 5762 5761 5760 5759 5758 5757 5756 5755 5754 5753 5751 5749 5748 5747 5745 5743 5741 5739 5737 5736
5780 5779 5777 5775 5773 5771 5770 5768 5767 5764 5762 5758 5755 5754 5753 5753 5751 5745 5744 5750 5755 5759 5761 5761 5760 5760 5759 5757 5757 5756 5755 5754 5752 5751 5749 5747 5746 5744 5742 5741 5739 5737 5736
5779 5778 5777 5775 5774 5772 5770 5768 5766 5764 5762 5760 5758 5756 5753 5750 5748 5746 5743 5745 5747 5754 5758 5760 5759 5758 5758 5756 5755 5755 5754 5753 5751 5749 5747 5746 5745 5743 5741 5740 5738 5737 5735
5776 5777 5777 5775 5773 5772 5771 5768 5766 5764 5763 5760 5758 5757 5755 5754 5753 5749 5745 5743 5744 5749 5753 5756 5757 5757 5756 5754 5754 5753 5752 5750 5748 5746 5745 5743 5742 5741 5739 5738 5737 5735 5734
5777 5778 5776 5775 5774 5772 5771 5769 5766 5764 5763 5761 5760 5758 5756 5755 5754 5752 5748 5743 5739 5741 5745 5748 5753 5754 5753 5752 5751 5750 5749 5748 5746 5744 5742 5741 5739 5738 5737 5735 5734 5732 5731
5778 5777 5776 5774 5773 5772 5770 5768 5765 5764 5763 5761 5759 5757 5755 5755 5754 5753 5750 5747 5740 5734 5736 5742 5745 5749 5749 5748 5747 5746 5745 5745 5743 5742 5740 5738 5736 5734 5733 5732 5731 5729 5728
5776 5774 5773 5772 5771 5770 5769 5766 5764 5763 5761 5759 5757 5755 5753 5753 5752 5751 5749 5747 5744 5738 5734 5739 5741 5743 5744 5744 5743 5742 5741 5740 5739 5738 5736 5735 5733 5731 5730 5728 5727 5726 5724
5774 5772 5771 5769 5768 5767 5766 5764 5762 5760 5757 5755 5754 5752 5751 5750 5748 5747 5745 5743 5741 5738 5733 5735 5737 5739 5738 5738 5737 5736 5736 5735 5734 5733 5732 5730 5728 5727 5725 5724 5723 5721 5720
5772 5770 5768 5766 5764 5763 5762 5760 5758 5756 5753 5751 5750 5749 5748 5747 5745 5743 5741 5739 5738 5736 5732 5729 5730 5731 5731 5732 5731 5730 5730 5730 5729 5728 5727 5726 5724 5723 5721 5719 5718 5717 5715
5768 5766 5764 5762 5760 5758 5757 5756 5754 5752 5751 5749 5747 5745 5743 5741 5739 5738 5736 5734 5733 5732 5730 5726 5725 5725 5725 5726 5724 5724 5724 5723 5723 5722 5721 5720 5719 5717 5716 5714 5713 5711 5710
5763 5761 5759 5757 5756 5755 5753 5752 5750 5748 5747 5745 5743 5741 5739 5737 5735 5733 5731 5729 5728 5725 5723 5720 5719 5718 5718 5719 5717 5714 5714 5715 5715 5715 5714 5714 5712 5710 5709 5708 5706 5705 5704
5759 5756 5754 5752 5752 5751 5749 5747 5745 5743 5741 5739 5738 5736 5735 5734 5732 5730 5728 5724 5722 5718 5715 5713 5712 5711 5710 5709 5708 5708 5706 5706 5706 5707 5705 5705 5705 5703 5701 5701 5700 5698 5698
5752 5750 5748 5746 5745 5745 5744 5743 5740 5737 5735 5733 5731 5730 5729 5727 5726 5724 5723 5721 5718 5714 5710 5707 5705 5704 5704 5703 5703 5702 5699 5696 5695 5698 5696 5696 5696 5695 5694 5694 5694 5692 5690
5744 5742 5741 5740 5738 5738 5737 5736 5734 5731 5728 5726 5724 5722 5721 5721 5719 5717 5715 5714 5712 5711 5709 5705 5701 5700 5699 5698 5696 5694 5693 5690 5690 5691 5688 5686 5686 5686 5687 5687 5686 5685 5683
5736 5734 5733 5731 5730 5730 5729 5728 5726 5723 5721 5719 5717 5715 5713 5712 5711 5708 5706 5704 5702 5702 5701 5699 5698 5697 5695 5694 5691 5689 5687 5684 5684 5682 5680 5676 5677 5677 5679 5678 5678 5676 5674
5727 5726 5725 5723 5721 5721 5720 5720 5718 5715 5712 5711 5710 5709 5707 5704 5704 5701 5697 5694 5692 5692 5693 5692 5691 5690 5689 5687 5684 5680 5676 5673 5671 5671 5671 5668 5668 5667 5668 5668 5669 5667 5665
5717 5717 5715 5714 5713 5712 5711 5710 5709 5706 5703 5701 5700 5700 5699 5697 5695 5692 5689 5686 5683 5683 5682 5682 5681 5681 5679 5678 5676 5673 5670 5665 5662 5660 5662 5659 5657 5655 5655 5658 5657 5657 5655